Probability
0 0 0 0 0 0 0 0 0 0 0 0 0 0 0 0 0 0 0 0 0 0 0 0 0 0 0 0 0 0 0 0 0 0 0 0 0 0
0 0 0 0 0 0 0 0 0 0 0 0 0 0 0 0 0 0 0 0 0 0 0 0 0 0 0 0 0 0 0 0 0 0 0 0 0 0
0 0 0 0 0 0 0 0 0 0 0 0 0 0 0 0 0 0 0 0 0 0 0 0 0 0 0 0 0 0 0 0 0 0 0 0 0 0
0 0 0 0 0 0 0 0 0 0 0 0 0 0 0 0 0 0 0 0 0 0 0 0 0 0 0 0 0 0 0 0 0 0 0 0 0 0
0 0 0 0 0 0 0 0 0 0 0 0 0 0 0 0 0 0 0 0 0 0 0 0 0 0 0 0 0 0 0 0 0 0 0 0 0 0
0 0 0 0 0 0 0 0 0 0 0 0 0 0 0 0 0 0 0 0 0 0 0 0 0 0 0 0 0 0 0 0 0 0 0 0 0 0
0 0 0 0 0 0 0 0 0 0 0 0 0 0 0 0 0 0 0 0 0 0 0 0 0 0 0 0 0 0 0 0 0 0 0 0 0 0
0 0 0 0 0 0 0 0 0 0 0 0 0 0 0 0 0 0 0 0 0 0 0 0 0 0 0 0 0 0 0 0 0 0 0 0 0 0
0 0 0 0 0 0 0 0 0 0 0 0 0 0 0 0 0 0 0 0 0 0 0 0 0 0 0 0 0 0 0 0 0 0 0 0 0 0
0 0 0 0 0 0 0 0 0 0 0 0 0 0 0 0 0 0 0 0 0 0 0 0 0 0 0 0 0 0 0 0 0 0 0 0 0 0
0 0 0 0 0 0 0 0 0 0 0 0 0 0 0 0 0 0 0 0 0 0 0 0 0 0 0 0 0 0 0 0 0 0 0 0 0 0
0 0 0 0 0 0 0 0 0 0 0 0 0 0 0 0 0 0 0 0 0 0 0 0 0 0 0 0 0 0 0 0 0 0 0 0 0 0
0 0 0 0 0 0 0 0 0 0 0 0 0 0 0 0 0 0 0 0 0 0 0 0 0 0 0 0 0 0 0 0 0 0 0 0 0 0
0 0 0 0 0 0 0 0 0 0 0 0 0 0 0 0 0 0 0 0 0 0 0 0 0 0 0 0 0 0 0 0 0 0 0 0 0 0
0 0 0 0 0 0 0 0 0 0 0 0 0 0 0 0 0 0 0 0 0 0 0 0 0 0 0 0 0 0 0 0 0 0 0 0 0 0
0 0 0 0 0 0 0 0 0 0 0 0 0 0 0 0 0 0 0 0 0 0 0 0 0 0 0 0 0 0 0 0 0 0 0 0 0 0
0 0 0 0 0 0 0 0 0 0 0 0 0 0 0 0 0 0 0 0 0 0 0 0 0 0 0 0 0 0 0 0 0 0 0 0 0 0
0 0 0 0 0 0 0 0 0 0 0 0 0 0 0 0 0 0 0 0 0 0 0 0 0 0 0 0 0 0 0 0 0 0 0 0 0 0
0 0 0 0 0 0 0 0 0 0 0 0 0 0 0 0 0 0 0 0 0 0 0 0 0 0 0 0 0 0 0 0 0 0 0 0 0 0
0 0 0 0 0 0 0 0 0 0 0 0 0 0 0 0 0 0 0 0 0 0 0 0 0 0 0 0 0 0 0 0 0 0 0 0 0 0
0 0 0 0 0 0 0 0 0 0 0 0 0 0 0 0 0 0 0 0 0 0 0 0 0 0 0 0 0 0 0 0 0 0 0 0 0 0
0 0 0 0 0 0 0 0 0 0 0 0 0 0 0 0 0 0 0 0 0 0 0 0 0 0 0 0 0 0 0 0 0 0 0 0 0 0
0 0 0 0 0 0 0 0 0 0 0 0 0 0 0 0 0 0 0 0 0 0 0 0 0 0 0 0 0 0 0 0 0 0 0 0 0 0
Wind_Speed
6 6 5 5 5 6 7 7 9 13 14 13 10 7 7 9 13 12 13 15 18 20 21 21 21 21 21 22 22 23 24 24 22 21 21 21 20 20
5 7 7 6 6 7 7 8 8 11 14 11 12 13 14 12 14 14 14 17 19 20 20 21 22 22 22 22 23 24 24 25 24 23 23 23 22 22
7 8 9 9 8 7 8 8 9 10 14 15 12 13 17 17 14 13 13 14 12 17 20 21 22 22 23 23 23 24 25 25 25 24 24 24 24 23
9 9 10 8 11 9 9 10 10 11 13 18 15 13 16 16 16 16 14 12 13 18 22 23 23 23 23 23 24 24 24 24 24 23 23 24 24 25
9 10 10 11 11 10 11 11 11 11 12 15 17 14 13 13 16 15 16 13 13 14 19 21 22 22 22 23 23 23 22 22 23 21 21 22 24 24
9 10 10 11 12 13 11 12 12 13 13 14 15 14 13 13 13 13 13 11 11 11 14 16 19 22 23 24 23 21 21 22 24 23 22 22 22 23
10 10 10 13 15 14 12 13 13 12 12 13 14 14 13 12 12 12 14 13 13 12 12 11 11 11 12 15 17 18 21 23 24 24 23 23 23 22
11 10 11 12 14 17 20 19 18 15 14 14 14 15 16 15 13 12 13 14 14 9 11 12 11 12 11 11 15 19 20 21 22 23 24 24 24 24
10 10 10 10 14 13 16 19 18 20 21 18 18 18 17 16 16 16 15 16 16 13 14 16 13 15 13 14 22 24 24 23 23 23 24 25 25 24
10 11 13 13 13 16 16 16 16 16 19 16 17 18 18 17 17 17 18 18 18 14 14 16 13 14 13 14 22 26 27 26 26 25 25 25 25 24
10 12 13 14 19 22 19 18 18 17 20 24 27 27 29 30 25 16 15 15 16 13 12 14 14 14 14 14 16 25 27 28 28 27 26 26 25 23
9 11 14 17 21 24 19 18 19 18 17 18 20 22 21 21 25 19 15 14 15 14 10 11 12 11 12 10 10 10 14 21 26 28 28 27 25 17
9 10 10 20 24 26 24 18 21 22 17 16 15 14 13 12 13 13 13 13 14 15 11 12 13 13 14 15 13 12 12 12 13 16 22 27 27 22
10 10 12 22 25 27 21 21 26 21 11 11 11 12 12 11 11 13 14 15 16 18 17 16 14 14 15 17 15 12 12 12 12 12 11 15 20 26
9 15 19 22 23 17 18 21 16 9 9 10 11 11 11 12 13 12 14 15 17 18 17 19 17 15 15 17 17 15 14 12 12 12 11 11 10 11
8 9 14 16 14 13 12 11 8 8 9 10 11 11 11 12 11 11 12 11 12 14 15 17 18 18 17 18 17 16 15 13 11 11 11 11 10 10
6 4 6 7 7 8 8 8 8 8 9 9 10 11 11 11 11 11 11 11 12 14 14 12 13 15 18 17 16 16 16 15 14 12 11 11 11 10
4 4 5 6 7 8 9 9 9 9 9 10 10 11 11 12 12 11 11 11 12 13 14 13 12 12 13 14 20 18 16 15 13 12 12 12 12 10
2 4 5 6 7 7 8 9 10 10 10 10 11 11 11 12 12 12 12 11 12 13 13 13 12 12 13 14 13 18 16 13 12 11 11 12 12 10
3 4 5 6 6 7 8 9 9 10 10 10 11 11 11 12 12 12 12 13 13 14 14 13 11 11 12 13 10 8 12 12 10 10 10 10 10 11
4 5 5 6 6 7 8 8 9 10 11 11 11 12 11 12 12 12 13 16 15 13 14 13 12 13 11 8 8 6 4 5 5 5 7 8 8 7
5 5 5 6 7 7 8 8 9 9 10 10 11 11 11 11 13 14 13 13 12 13 14 12 12 10 7 7 6 5 3 1 4 8 9 4 1 3
5 5 6 6 7 7 7 8 10 9 9 10 11 11 11 11 11 12 12 12 12 13 13 11 9 7 5 4 3 2 1 2 2 3 5 10 9 8
Wind_Direction
330 325 315 309 305 300 295 291 292 298 298 300 300 291 296 300 301 300 299 297 298 296 294 293 292 290 286 281 273 266 260 253 245 242 245 247 245 243
322 316 314 309 303 296 291 288 282 283 287 292 294 295 298 293 293 292 290 292 287 285 286 287 287 286 284 281 277 271 264 258 250 244 242 243 242 240
320 316 312 310 305 301 296 289 284 282 283 289 290 293 294 293 293 290 288 287 285 281 282 282 283 282 281 278 276 273 268 262 255 248 243 242 241 238
320 316 314 314 308 303 299 295 291 287 286 291 293 293 292 294 294 291 288 284 280 281 281 281 281 279 277 275 272 270 267 264 260 253 246 243 242 238
312 311 311 311 307 306 304 299 295 293 289 288 291 293 292 292 293 291 289 284 280 278 279 279 278 277 275 274 271 268 265 263 262 257 248 243 244 241
305 304 304 304 305 306 302 299 299 298 294 290 290 293 294 295 293 293 293 292 290 290 284 280 279 278 275 272 270 268 263 260 258 254 248 241 240 243
301 300 299 300 298 296 295 300 301 297 296 293 292 294 295 299 298 301 297 298 294 292 286 281 280 276 276 272 265 261 262 262 259 255 249 243 238 238
300 301 299 293 295 298 297 296 294 293 293 291 289 289 294 298 300 297 297 295 294 298 300 295 295 287 283 278 276 275 272 268 262 257 252 246 240 236
294 296 296 296 297 295 297 297 294 288 284 284 285 287 291 293 294 292 288 287 286 292 294 287 286 281 281 279 277 273 270 269 267 263 256 250 244 238
287 290 292 294 296 298 296 292 289 286 283 280 277 280 282 283 281 282 283 283 283 280 278 280 283 280 279 274 273 269 267 265 264 262 259 254 248 241
286 286 288 291 294 298 298 296 293 289 287 282 278 277 277 278 278 279 279 281 283 282 280 281 287 287 282 275 270 268 266 264 263 260 258 255 251 244
287 286 286 292 298 301 299 296 294 295 296 293 287 283 279 277 275 270 271 273 278 284 278 274 285 298 291 275 272 275 273 268 263 259 256 253 250 244
293 296 296 301 302 304 305 302 301 306 306 301 295 290 286 280 275 269 264 263 269 270 275 284 284 283 279 286 288 284 278 274 269 262 255 250 246 239
293 296 299 306 310 312 311 307 311 313 306 300 295 292 290 289 286 284 278 273 269 272 275 274 274 275 277 279 281 279 272 269 267 264 259 254 247 242
290 298 308 314 316 314 312 315 318 312 305 301 297 295 296 297 295 291 284 278 274 271 269 266 264 265 264 268 273 274 273 269 261 258 256 252 246 240
298 311 317 316 316 313 314 316 313 305 303 297 297 299 299 297 292 290 288 285 280 276 268 262 259 258 259 260 263 267 263 261 258 255 253 253 248 241
323 319 313 315 318 318 317 314 311 308 305 304 302 301 300 298 295 294 289 286 281 281 282 275 262 254 252 255 258 257 257 255 252 250 247 248 246 241
323 298 300 303 307 312 314 315 314 312 311 309 304 301 302 302 300 297 292 287 283 282 281 281 278 272 261 250 240 249 251 251 248 241 237 241 244 240
278 273 281 289 295 299 302 304 307 308 308 304 304 305 304 302 301 300 297 292 289 287 285 283 276 269 268 269 255 231 238 245 242 233 227 232 240 242
247 263 273 280 286 290 294 298 300 304 304 304 304 304 304 304 303 301 300 297 295 293 290 286 279 271 265 270 275 268 241 244 243 233 224 227 237 246
247 255 264 273 278 283 287 290 294 297 299 301 301 304 307 307 304 302 300 299 297 293 293 294 293 287 276 267 262 260 264 264 260 248 230 222 223 224
248 255 262 267 274 278 283 287 291 294 298 299 303 307 309 308 305 304 303 303 301 299 298 297 301 299 286 271 264 266 282 7 53 51 37 25 263 223
247 256 264 269 269 272 277 283 288 291 295 298 303 309 312 310 307 305 305 305 305 307 309 308 311 312 313 312 303 306 23 37 27 45 37 26 46 55